EW1016 Weather Reports


time (UTC)temp
C
wind
direction
speed
KPH
gust
KPH
rain 1hr
cm
rain 24hr
cm
rain mn
cm
humidity
%
barometer
mb
20260510123029 20 48 0.0 0.0 0.00 1.17 0.00 2 1015.8
20260510121522 20 48 0.0 0.0 0.00 1.17 0.00 3 1015.7
20260510120019 -17 0.0 0.0 0.00 1.17 0.00 1015.5
20260510114511 -17 0.0 0.0 0.00 1.17 0.00 1015.2
20260510113013 -17 0.0 0.0 0.00 1.17 0.00 1015.1
20260510111601 -17 0.0 0.0 0.00 1.17 0.00 1014.8
20260510110101 -17 0.0 0.0 0.00 1.17 0.00 1014.6
20260510104601 -17 0.0 0.0 0.00 1.17 0.00 1014.3
20260510103047 -17 0.0 0.0 0.00 1.17 0.00 1014.2
20260510101543 -17 0.0 0.0 0.00 1.17 0.00 1013.9
20260510100039 -17 0.0 0.0 0.00 1.17 0.00 1013.9
20260510094546 19 48 0.0 0.0 0.00 1.17 0.00 8 1013.8
20260510093041 19 48 0.0 0.0 0.00 1.17 0.00 8 1013.7
20260510091527 19 48 0.0 0.0 0.00 1.17 0.00 8 1013.5
20260510090025 20 48 0.0 0.0 0.00 1.17 0.00 8 1013.3
20260510084518 20 48 0.0 0.0 0.00 1.17 0.00 7 1013.2
20260510083013 20 48 0.0 0.0 0.00 1.17 0.00 7 1013.0
20260510081514 20 48 0.0 0.0 0.00 1.17 0.00 6 1013.0
20260510080004 20 48 0.0 0.0 0.00 1.17 0.00 6 1012.8
20260510074600 20 48 0.0 0.0 0.00 1.17 0.00 6 1012.9
20260510073055 20 48 0.0 0.0 0.00 1.17 0.00 6 1012.9
20260510071555 20 48 0.0 0.0 0.00 1.17 0.00 5 1013.0
20260510070047 20 48 0.0 0.0 0.00 1.17 0.00 5 1013.0
20260510064542 21 48 0.0 0.0 0.00 1.17 0.00 4 1013.1
20260510063038 21 48 0.0 0.0 0.00 1.17 0.00 4 1012.9
20260510061534 21 48 0.0 0.0 0.00 1.17 0.00 4 1013.1
20260510060029 21 48 0.0 0.0 0.00 1.17 0.00 4 1013.3
20260510054525 21 48 0.0 0.0 0.00 1.17 0.00 5 1013.4
20260510053044 21 48 0.0 0.0 0.00 1.17 0.00 5 1013.5
20260510051517 21 48 0.0 0.0 0.00 1.17 0.00 6 1013.6
20260510050018 21 48 0.0 0.0 0.00 1.17 0.00 7 1013.9
20260510044512 20 48 0.0 0.0 0.00 1.17 0.00 8 1014.2
20260510043009 20 48 0.0 0.0 0.00 1.17 0.00 8 1014.5
20260510041509 20 48 0.0 0.0 0.00 1.17 0.00 9 1014.7
20260510040007 20 48 0.0 0.0 0.00 1.17 1.17 9 1014.7
20260510034600 20 48 0.0 0.0 0.00 1.17 1.17 10 1014.7
20260510033107 20 48 0.0 0.0 0.00 1.17 1.17 10 1014.6
20260510031554 21 48 0.0 0.0 0.00 1.17 1.17 10 1014.6
20260510030049 21 48 0.0 0.0 0.00 1.17 1.17 10 1014.5
20260510024547 21 48 0.0 0.0 0.00 1.17 1.17 10 1014.6
20260510023039 21 48 0.0 0.0 0.00 1.17 1.17 10 1014.4
20260510021542 21 48 0.0 0.0 0.00 1.17 1.17 10 1014.3
20260510020030 21 48 0.0 0.0 0.00 1.17 1.17 10 1014.0
20260510014529 21 48 0.0 0.0 0.00 1.17 1.17 10 1013.7
20260510013025 21 48 0.0 0.0 0.00 1.17 1.17 11 1013.6
20260510011517 21 48 0.0 0.0 0.00 1.17 1.17 12 1013.3
20260510010013 21 48 0.0 0.0 0.00 1.17 1.17 12 1013.3
20260510004509 21 48 0.0 0.0 0.00 1.17 1.17 13 1012.8
20260510003005 21 48 0.0 0.0 0.00 1.17 1.17 14 1013.0
20260510001600 21 48 0.0 0.0 0.03 1.17 1.17 13 1013.1
20260510000100 21 48 0.0 0.0 0.08 1.17 1.17 13 1013.2
20260509234551 21 48 0.0 0.0 0.13 1.17 1.17 14 1013.0
20260509233047 21 48 0.0 0.0 0.15 1.17 1.17 15 1013.5
20260509231545 21 48 0.0 0.0 0.13 1.14 1.14 16 1013.8
20260509230038 22 48 0.0 0.0 0.08 1.09 1.09 16 1013.9
20260509224533 22 48 0.0 0.0 0.03 1.04 1.04 15 1014.1
20260509223031 22 48 0.0 0.0 0.00 1.02 1.02 14 1014.0
20260509221525 22 48 0.0 0.0 0.00 1.02 1.02 16 1013.5
20260509220022 22 48 0.0 0.0 0.00 1.02 1.02 17 1013.5
20260509214516 22 48 0.0 0.0 0.00 1.02 1.02 17 1013.4
20260509213024 22 48 0.0 0.0 0.00 1.02 1.02 18 1013.2
20260509211508 22 48 0.0 0.0 0.00 1.02 1.02 20 1012.9
20260509210004 22 48 0.0 0.0 0.00 1.70 1.02 22 1012.8
20260509204559 22 48 0.0 0.0 0.00 1.70 1.02 22 1012.9
20260509203105 22 48 0.0 0.0 0.00 1.70 1.02 22 1012.9
20260509201551 23 48 0.0 0.0 0.03 1.70 1.02 25 1012.9
20260509200046 23 48 0.0 0.0 0.03 1.70 1.02 26 1012.8
20260509194544 24 48 0.0 0.0 0.03 1.70 1.02 21 1012.9
20260509193037 25 48 0.0 0.0 0.03 1.70 1.02 21 1012.8
20260509191547 25 49 0.0 0.0 0.00 1.68 0.99 22 1012.8
20260509190032 25 49 0.0 0.0 0.43 1.68 0.99 23 1013.1
20260509184534 25 49 0.0 0.0 0.97 1.68 0.99 26 1012.9
20260509183029 25 48 0.0 0.0 0.99 1.68 0.99 42 1013.0
20260509181516 26 48 0.0 0.0 0.99 1.68 0.99 49 1013.0
20260509180014 27 49 0.0 0.0 0.41 1.09 0.41 56 1013.2
20260509174507 27 49 0.0 0.0 0.03 0.71 0.03 59 1013.0
20260509173001 27 49 0.0 0.0 0.00 0.69 0.00 63 1013.1
20260509171559 27 49 0.0 0.0 0.00 0.69 0.00 64 1013.3
20260509170059 27 49 0.0 0.0 0.00 0.69 0.00 65 1013.3
20260509164549 27 49 0.0 0.0 0.00 0.69 0.00 63 1013.3
20260509163044 27 49 0.0 0.0 0.00 0.69 0.00 62 1013.5
20260509161540 27 49 0.0 0.0 0.00 0.69 0.00 59 1013.5
20260509160037 26 49 0.0 0.0 0.00 0.69 0.00 59 1013.6
20260509154531 26 49 0.0 0.0 0.00 0.69 0.00 53 1013.2
20260509153034 26 49 0.0 0.0 0.00 0.69 0.00 53 1013.2
20260509151523 26 49 0.0 0.0 0.00 0.69 0.00 51 1013.3
20260509150018 26 49 0.0 0.0 0.00 0.69 0.00 45 1013.4
20260509144513 25 49 0.0 0.0 0.00 0.69 0.00 40 1013.3
20260509143009 25 49 0.0 0.0 0.00 0.69 0.00 25 1013.6
20260509141505 24 49 0.0 0.0 0.00 0.69 0.00 21 1013.7
20260509140103 23 49 0.0 0.0 0.00 0.69 0.00 16 1013.6
20260509134555 23 49 0.0 0.0 0.00 0.69 0.00 6 1013.5
20260509133052 22 49 0.0 0.0 0.00 0.69 0.00 3 1013.5
20260509131548 22 49 0.0 0.0 0.00 0.69 0.00 2 1013.3
20260509130046 22 49 0.0 0.0 0.00 0.69 0.00 2 1013.1
20260509124548 21 49 0.0 0.0 0.00 0.69 0.00 2 1013.1